Location: Los Gatos B&B
(42.6926°N, 77.0646°W)
Time: 23:44:31
(UTC-04:00)

Cosmos 2263 Rocket - Visible Passes

Search period start: 31 July 2014 00:00
Search period end: 10 August 2014 00:00
Orbit: 824 x 849 km, 71.0° (Epoch: 31 July)

Date Brightness Start Highest point End Pass type
(mag) Time Alt. Az. Time Alt. Az. Time Alt. Az.
31 Jul 4.0 00:50:35 18° E 00:50:35 18° E 00:53:21 10° NE visible
31 Jul 2.3 02:32:17 58° W 02:32:49 61° WNW 02:38:27 10° NNE visible
31 Jul 4.5 04:15:58 10° WNW 04:17:59 12° NW 04:19:59 10° NNW visible
01 Aug 4.2 00:34:18 16° E 00:34:18 16° E 00:36:33 10° ENE visible
01 Aug 2.3 02:15:59 66° WNW 02:16:12 66° WNW 02:21:51 10° NNE visible
01 Aug 4.4 03:58:52 10° WNW 04:01:16 13° NW 04:03:40 10° NNW visible
02 Aug 4.3 00:17:59 15° ENE 00:17:59 15° ENE 00:19:43 10° ENE visible
02 Aug 2.2 01:59:40 71° NW 01:59:40 71° NW 02:05:15 10° NNE visible
02 Aug 4.4 03:41:51 10° WNW 03:44:34 14° NW 03:47:18 10° NNW visible
03 Aug 4.3 00:01:38 13° ENE 00:01:38 13° ENE 00:02:51 10° ENE visible
03 Aug 2.3 01:43:19 74° NNW 01:43:19 74° NNW 01:48:39 10° NNE visible
03 Aug 4.4 03:25:00 10° WNW 03:27:52 14° NW 03:30:53 10° NNW visible
03 Aug 4.4 23:45:15 12° ENE 23:45:15 12° ENE 23:45:55 10° ENE visible
04 Aug 2.3 01:26:56 72° N 01:26:56 72° N 01:32:02 10° NNE visible
04 Aug 4.3 03:08:38 12° WNW 03:11:11 15° NW 03:14:27 10° N visible
04 Aug 4.5 23:28:51 10° ENE 23:28:51 10° ENE 23:28:54 10° ENE visible
05 Aug 2.4 01:10:32 68° NNE 01:10:32 68° NNE 01:15:26 10° NNE visible
05 Aug 4.3 02:52:13 13° WNW 02:54:30 16° NW 02:58:00 10° N visible
06 Aug 2.5 00:54:05 63° NE 00:54:05 63° NE 00:58:49 10° NNE visible
06 Aug 4.2 02:35:46 15° WNW 02:37:48 18° NW 02:41:31 10° N visible
07 Aug 2.5 00:37:37 59° NE 00:37:37 59° NE 00:42:12 10° NNE visible
07 Aug 4.2 02:19:18 16° WNW 02:21:08 19° NW 02:25:02 10° N visible
08 Aug 2.6 00:21:06 55° NE 00:21:06 55° NE 00:25:34 10° NNE visible
08 Aug 4.1 02:02:47 18° WNW 02:04:27 20° NW 02:08:32 10° N visible
09 Aug 2.6 00:04:33 52° NE 00:04:33 52° NE 00:08:56 10° NNE visible
09 Aug 4.1 01:46:13 19° WNW 01:47:47 21° NW 01:52:02 10° N visible
09 Aug 2.7 23:47:56 50° ENE 23:47:56 50° ENE 23:52:18 10° NNE visible
